Regional Weather Roundup
Issued by NWS Lake Charles, LA

Home | Current Version | Previous Version | Text Only | Print | Product List | Glossary On
Versions: 1 2 3 4 5 6 7 8 9 10 11 12 13 14 15 16 17 18 19 20 21 22 23 24 25 26 27 28 29 30 31 32 33 34 35 36 37 38 39 40 41 42 43 44 45 46 47 48 49 50
000
ASUS44 KLCH 151611
RWRLCH
REGIONAL WEATHER ROUNDUP
NATIONAL WEATHER SERVICE LAKE CHARLES LA
1000 AM CST FRI DEC 15 2017

Note: "fair" indicates few or no clouds below 12,000 feet with no
significant weather and/or obstructions to visibility.


ACROSS SOUTHEAST TEXAS

CITY           SKY/WX    TMP DP  RH WIND       PRES   REMARKS
BEAUMONT       CLOUDY    48  36  63 NE12      30.29R
BEAUMONT CITY  FAIR      49  35  58 NE9       30.31R
ORANGE         CLOUDY    47  38  70 NE7       30.31R
JASPER         CLOUDY    46  35  63 N5        30.35R
$$

ACROSS CENTRAL LOUISIANA

CITY           SKY/WX    TMP DP  RH WIND       PRES   REMARKS
LEESVILLE      CLOUDY    43  31  62 N5        30.29R
FULLERTON      FAIR      43  32  65 VRB3      30.27R
ALEXANDRIA INT CLOUDY    43  29  57 NE6       30.30R
ESLER FIELD    CLOUDY    42  32  67 CALM      30.31R
DERIDDER       FAIR      44  30  57 N3        30.32R
OAKDALE        CLOUDY    45  32  61 NE3       30.31R
OPELOUSAS      FAIR      45  31  60 NE8       30.31R
$$

ACROSS SOUTHWEST AND SOUTH CENTRAL LOUISIANA

CITY           SKY/WX    TMP DP  RH WIND       PRES   REMARKS
SULPHUR        CLOUDY    47  34  60 NE8       30.30S
LAKE CHARLES   CLOUDY    47  34  60 NE13      30.29R
CHENNAULT INT  CLOUDY    46  34  61 N9        30.30R
CAMERON PHI    NOT AVBL
DEQUINCY       FAIR      44  32  62 N3        30.31R
JENNINGS       CLOUDY    46  33  62 N8        30.30R
LAFAYETTE      CLOUDY    47  36  65 N10       30.29R
NEW IBERIA     CLOUDY    48  36  63 N13       30.28R
ABBEVILLE      CLOUDY    46  39  75 N8        30.29R
PATTERSON      LGT RAIN  46  41  82 N9        30.26R
SALT POINT       N/A     47  41  80 VRB7      30.24R
$$

SELECTED SITES ACROSS THE REGION

CITY           SKY/WX    TMP DP  RH WIND       PRES   REMARKS
HOUSTON BUSH   CLOUDY    49  35  58 NE10      30.30R
HOUSTON HOBBY  CLOUDY    50  35  56 N13       30.29R
GALVESTON      CLOUDY    51  40  65 N16G26    30.29R
COLLEGE STAT   CLOUDY    49  31  49 N9        30.34R
CONROE         CLOUDY    46  34  62 N5        30.32R
HUNTSVILLE     CLOUDY    46  32  58 NE6       30.32R
LUFKIN         CLOUDY    45  30  55 NE5       30.32R
SHREVEPORT     CLOUDY    43  33  68 CALM      30.30R
MONROE         CLOUDY    43  29  57 N6        30.32R
NATCHEZ MS     PTSUNNY   43  32  65 NE6       30.31R
BATON ROUGE    CLOUDY    46  32  58 NE8       30.27R
N.O. INTL ARPT LGT RAIN  49  41  74 N8        30.25R
SLIDELL        LGT RAIN  48  37  65 N10       30.24R
$$

MARINE REPORTS

STATION/POSITION TIME  SKY/WX   TEMP    WIND        PRES    VSBY
                                AIR SEA DIR/SP/G
                 (UTC)          (F)     (DEG/KT/KT) (MB)    (MI)
BUOY 30 S HIGH I 1450            51 60   20/ 19/ 23 1023.9
WVE H/P(F/S)=  4/ 4

SEA RIM ST PARK  1600            47      30/ 11/ 14 1025.9R
PORT ARTHUR      1548            47 57   30/  7/ 10 1025.7R
SABINE PASS N    1548            47 59   20/ 12/ 14 1027.0R
TEXAS POINT      NOT AVBL
CALCASIEU PASS   1548            46 55   50/ 11/ 14 1024.2R
LK CHARLES BEACH 1548            45 57              1025.4R
MARSH ISLAND     1500            49                   N/A
FRESH WATER LOCK 1548            47 56  360/ 11/ 15 1024.4R
AMERADA PASS     1548            47 51   10/  8/ 12 1023.3R
$$



USA.gov is the U.S. government's official web portal to all federal, state and local government web resources and services.